Location: Allington
(51.2833°N, 0.5167°E)
Time: 20:08:57
(UTC+00:00)

Daily predictions for brighter satellites

Satellite Brightness Start Highest point End
(mag) Time Altitude Azimuth Time Altitude Azimuth Time Altitude Azimuth
Nadezhda 4 Rocket 4.2 19:25:09 10° N 19:31:31 84° W 19:37:46 10° S
Cosmos 2034 Rocket 4.0 19:25:57 10° S 19:32:10 79° E 19:38:29 10° NNE
In-Cosmos 22 Rocket 4.5 19:30:58 10° NNW 19:36:50 83° W 19:42:39 10° S
Cosmos 1464 Rocket 4.4 19:33:45 10° SSW 19:40:02 70° WNW 19:46:17 10° N
Cosmos 2237 Rocket 3.0 19:34:56 10° NNW 19:40:09 37° NE 19:45:21 10° ESE
Exosat Rocket 4.1 19:34:05 10° NNW 19:41:13 68° ENE 19:46:32 10° SE
BREEZE-M DEB (TANK) 4.1 19:37:45 10° WSW 19:42:36 44° SSE 19:47:21 10° E
SJ-6B 2.7 19:39:16 10° SSE 19:42:59 85° WSW 19:46:47 10° NNW
Meteor 2-10 Rocket 3.6 19:38:53 10° S 19:44:05 71° E 19:49:35 10° NNE
SL-8 R/B 4.2 19:39:35 10° W 19:44:16 50° SSW 19:48:56 10° ESE
BREEZE-M DEB (TANK) 4.1 19:41:45 10° SW 19:44:45 46° SSE 19:52:06 10° ENE
MOS 1 4.3 19:41:26 10° SSE 19:47:04 78° ENE 19:52:44 10° NNW
Cosmos 2026 Rocket 4.0 19:41:53 10° N 19:47:56 67° ENE 19:54:01 10° SSE
Cosmos 405 2.9 19:46:47 10° S 19:50:11 62° E 19:53:39 10° NNE
OBJECT-B 1.1 19:48:11 10° S 19:51:24 68° WSW 19:54:38 10° NNW
IRS-1A Rocket 4.3 19:46:21 10° SSE 19:51:56 85° ENE 19:57:41 10° NNW
Terra 3.9 19:51:26 10° ENE 19:53:30 13° NE 19:55:34 10° NNE
USA-17 4.5 19:50:14 10° SSW 19:53:49 52° SE 19:56:51 10° NE
BREEZE-M DEB (TANK) 3.9 19:50:03 10° SW 19:54:11 72° SSE 20:09:53 10° ENE
CZ-4 R/B 4.5 19:52:01 10° SW 19:54:28 15° W 19:56:56 10° NW
Cosmos 1892 3.4 19:50:55 10° NNW 19:54:37 57° W 19:58:20 10° S
NOSS 3-4 (A) 3.5 19:49:18 10° SW 19:55:11 88° NW 20:01:39 10° NE
NOSS 3-4 (C) 3.5 19:49:23 10° SW 19:55:18 89° NW 20:01:45 10° NE
Cosmos 1627 Rocket 4.5 19:51:54 10° N 19:58:04 81° ENE 20:04:16 10° SSE
Cosmos 2098 Rocket 4.5 19:51:57 10° NNW 19:58:55 83° W 20:06:22 10° S
Cosmos 2227 Rocket 3.8 19:57:04 11° ESE 19:59:11 14° E 20:01:52 10° ENE
Cosmos 1606 Rocket 4.2 19:55:51 10° SSW 20:00:10 59° WNW 20:04:29 10° N
Cosmos 2251 Rocket 3.9 19:57:35 10° S 20:02:38 44° ESE 20:07:42 10° NE
SPOT 1/Viking Rocket 4.3 19:58:13 11° SE 20:02:40 36° ENE 20:07:26 10° N
Cosmos 389 Rocket 3.7 20:00:15 11° SE 20:02:53 24° E 20:05:48 10° NE
Cosmos 2333 Rocket 2.8 19:58:13 10° NW 20:03:53 58° WSW 20:09:28 10° S
Cosmos 2297 Rocket 3.5 20:02:25 10° SE 20:06:20 20° E 20:10:16 10° NE
BREEZE-M DEB (TANK) 1.8 20:04:17 10° W 20:06:47 52° S 20:08:17 18° ESE
Cosmos 1825 2.2 20:03:37 10° N 20:07:25 87° W 20:11:12 10° S
Cosmos 1634 Rocket 4.0 20:01:18 10° S 20:07:31 70° E 20:13:44 10° NNE
ATLAS 2AS CENTAUR R/B 3.0 20:00:59 10° SW 20:08:55 80° SE 20:16:40 10° NE
SPOT 3 Rocket 3.7 20:03:57 10° SSE 20:09:05 63° ENE 20:14:12 10° N
NOSS 7 (H) 4.0 20:06:29 10° SW 20:09:46 84° SE 20:12:41 10° NE
Cosmos 1726 Rocket 4.2 20:06:20 10° SSW 20:10:39 58° WNW 20:14:59 10° N
ARIANE 5 R/B 3.7 20:09:19 14° ESE 20:12:16 29° ENE 20:16:02 10° N
Ariane Rocket 3.3 20:09:33 10° S 20:14:34 67° WSW 20:19:38 10° NNW
Cosmos 1408 3.8 20:12:02 10° NNW 20:15:24 40° W 20:18:45 10° SSW
Orbus 7S? 3.4 20:16:41 10° SW 20:19:33 53° SE 20:24:58 10° ENE
CZ-4C R/B 3.3 20:16:01 10° WSW 20:21:08 49° NNW 20:27:24 10° NE
RESURS DK-1 2.3 20:18:14 10° SSW 20:22:19 64° ESE 20:26:27 10° NE
Genesis I 4.2 20:18:58 10° NNW 20:22:44 38° NE 20:25:22 17° E
Landsat 7 3.8 20:20:38 14° SSE 20:24:43 68° ENE 20:29:28 10° N
USA 245 3.7 20:24:37 20° SE 20:26:52 40° ENE 20:29:58 10° N
Cosmos-2242 4.2 20:25:50 20° ESE 20:27:33 25° E 20:31:06 10° NNE
NOSS 7 (E) 4.2 20:24:47 10° SW 20:28:26 78° SE 20:31:31 10° NE
Cosmos 2058 3.5 20:24:20 10° NNW 20:28:28 58° W 20:32:33 10° S
Meteor 2-1 Rocket 4.3 20:23:11 10° S 20:29:01 82° E 20:34:59 10° NNE
Cosmos 1655 Rocket 4.2 20:26:49 10° N 20:33:03 58° ENE 20:37:46 18° SSE
Cosmos 482 Debris 2.4 20:31:13 10° WSW 20:33:33 89° N 20:33:56 52° ENE
SL-16 R/B 3.1 20:28:55 10° NNW 20:34:10 36° NE 20:37:53 18° ESE
Cosmos 1980 3.7 20:29:57 10° NNW 20:35:41 82° ENE 20:39:44 20° SSE
Cosmos 2058 Rocket 3.9 20:32:35 10° SSW 20:36:50 51° WNW 20:41:06 10° N
COSMOS 2487 4.0 20:34:00 10° SW 20:37:12 37° WNW 20:40:26 10° N
Cosmos 614 Rocket 3.9 20:32:13 10° S 20:37:16 60° ESE 20:42:18 10° NNE
BREEZE-M DEB (TANK) 3.9 20:34:02 10° WSW 20:38:24 75° SSE 20:55:13 10° E
Cosmos 2151 3.1 20:38:35 10° N 20:42:52 62° ENE 20:45:16 25° SSE
COSMOS 2428 3.8 20:38:55 10° NW 20:44:17 41° WSW 20:49:36 10° S
Meteor 2-3 Rocket 3.9 20:39:06 10° N 20:44:50 59° ENE 20:48:26 23° SE
IRIDIUM 104 4.3 20:40:14 10° S 20:45:27 80° E 20:50:42 10° N
Cosmos 1076 Rocket 3.7 20:42:19 10° NNW 20:46:41 71° W 20:50:07 16° S
Cosmos 2344 3.5 20:39:44 10° SW 20:47:09 78° SE 20:55:16 10° NE
ATLAS 3B R/B 3.4 20:40:38 10° NW 20:47:22 52° WSW 20:53:12 15° SSE
FALCON 9 DEB 3.3 20:45:15 10° SW 20:48:34 47° SSE 20:49:45 32° E
Cosmos 192 4.5 20:44:08 10° NNW 20:49:06 74° WSW 20:52:27 21° SSE
USA 215 3.3 20:45:38 21° SE 20:50:13 71° SW 20:56:47 10° WNW
Cosmos 1812 Rocket 3.5 20:47:57 14° S 20:51:42 73° E 20:56:10 10° NNE
Resurs 01 Rocket 2.4 20:50:18 12° S 20:54:20 51° W 20:58:42 10° NNW
IRIDIUM 114 4.3 20:49:23 10° S 20:54:35 87° W 20:59:52 10° N
Cosmos 1818 3.5 20:49:32 10° SW 20:54:59 81° SE 21:00:30 10° NE
Cosmos 1455 4.1 20:52:29 10° SW 20:55:50 30° WNW 20:59:12 10° N
ERS-1 Rocket 3.3 20:54:40 27° SE 20:57:08 51° ENE 21:02:01 10° N
Cosmos 2219 Rocket 3.9 20:52:21 10° NW 20:57:09 29° WSW 21:01:56 10° SSW
Cosmos 44 3.5 20:51:59 10° SW 20:57:10 88° NW 21:02:37 10° NE
Cosmos 407 Rocket 3.6 20:53:35 15° S 20:57:34 50° ESE 21:02:34 10° NNE
Okean 3 Rocket 4.2 20:53:28 10° N 20:57:47 40° ENE 20:59:21 30° ESE
NOSS 0 Rocket 4.4 20:52:27 10° NW 20:58:30 55° WSW 21:03:07 18° S
Meteor 2-21 4.4 20:54:50 10° NNW 21:00:55 85° W 21:05:27 19° S
Cosmos 1766 Rocket 4.0 20:58:02 10° N 21:02:11 43° ENE 21:03:29 33° ESE
Cosmos 1633 2.6 20:59:02 10° NNW 21:02:40 76° W 21:04:10 33° S
IRIDIUM 103 4.5 20:58:33 10° S 21:03:45 74° W 21:09:00 10° N
CARTOSAT-1 3.5 21:04:22 34° SSE 21:06:12 73° ENE 21:10:31 10° N
IGS 5A 4.5 21:04:08 15° SSW 21:07:18 43° W 21:11:17 10° NNW
ATLAS 5 CENTAUR R/B 4.1 21:04:38 10° WNW 21:08:12 23° NNW 21:12:14 10° NE
Cosmos 405 Rocket 4.3 21:05:43 10° NNW 21:09:21 33° W 21:12:30 12° SSW
Meteor 1-4 Rocket 4.0 21:10:11 23° ENE 21:10:11 23° ENE 21:12:19 10° NE
Lacrosse 5 rocket 2.8 21:05:47 10° WNW 21:09:44 38° N 21:13:53 10° ENE
Cosmos 909 Rocket 4.1 21:07:10 10° SW 21:13:28 85° NW 21:20:06 10° NE
Cosmos 1023 Rocket 4.4 21:12:05 20° S 21:15:32 64° ESE 21:20:35 10° NNE
COSMOS 2455 3.7 21:18:16 28° ESE 21:18:21 28° ESE 21:23:23 10° NE
Cosmos 1869 3.7 21:18:39 41° E 21:18:48 41° E 21:22:34 10° NNE
SPOT 5 2.7 21:19:30 40° SSE 21:21:08 76° ENE 21:25:54 10° NNW
Cosmos 1140 Rocket 3.3 21:18:31 21° S 21:21:58 69° ESE 21:27:05 10° NNE
Cosmos 2237 Rocket 2.8 21:18:59 10° NW 21:24:26 51° WSW 21:27:26 25° S
Spot 2 Rocket 3.7 21:21:43 28° S 21:24:26 68° WSW 21:29:31 10° NNW
CZ-2C R/B 4.1 21:20:29 10° N 21:24:54 62° WNW 21:28:54 12° SSW
SeaSat 1 4.3 21:22:59 10° ENE 21:24:38 15° E 21:24:38 15° E
Terra 1.8 21:28:59 44° SE 21:30:24 68° ENE 21:35:09 10° N
Cosmos 389 Rocket 4.5 21:34:21 10° SW 21:37:25 28° WNW 21:40:34 10° N
Cosmos 2082 4.1 21:39:12 40° ESE 21:39:39 40° ESE 21:44:52 10° NE
Cosmos 2263 Rocket 4.1 21:42:46 14° E 21:42:46 14° E 21:44:21 10° ENE
USA 229 DEB 4.4 21:34:25 10° NW 21:41:23 53° NNE 21:46:08 23° E
USA 229 4.4 21:34:31 10° NW 21:41:29 53° NNE 21:46:15 23° E
Cosmos 2227 Rocket 2.1 21:38:45 24° SSW 21:42:15 73° ESE 21:47:56 10° NNE
Cosmos 468 Rocket 4.1 21:37:17 10° NNW 21:42:24 62° ENE 21:43:44 46° ESE
Meteor 2-8 Rocket 4.4 21:42:18 34° S 21:45:11 77° E 21:51:20 10° NNE
ARIANE 5 R/B 3.7 21:46:52 28° SW 21:48:36 39° W 21:52:46 10° NNW
Cosmos 1842 Rocket 4.2 21:49:34 40° E 21:49:34 40° E 21:53:28 10° NNE
Cosmos 2297 Rocket 2.2 21:44:02 10° SSW 21:49:41 83° WNW 21:55:24 10° NNE
Cosmos 841 Rocket 4.3 21:45:12 10° NNW 21:50:06 39° NE 21:51:30 32° E
Cosmos 1190 Rocket 4.0 21:47:50 23° SSW 21:51:12 82° WNW 21:56:27 10° NNE
Cosmos 2219 3.1 21:47:37 14° SSW 21:52:26 85° WNW 21:58:06 10° NNE
H-2A R/B 3.3 21:49:16 10° NNE 21:53:30 73° ESE 21:53:41 72° SE
NOSS 3-1 (A) 4.3 21:52:18 10° NW 21:59:17 59° NE 22:04:04 26° ESE
Genesis I 4.2 21:56:36 10° NW 22:00:15 36° WSW 22:00:15 36° WSW
ATLAS 2AS CENTAUR R/B 4.1 21:53:04 10° W 22:00:36 45° NNW 22:07:50 10° NE
Cosmos 921 Rocket 4.1 21:57:20 10° N 22:01:24 33° ENE 22:01:48 32° ENE
Timation 2 Rocket 4.0 21:54:58 10° SSW 22:01:33 88° WNW 22:07:53 10° NNE
Cosmos 1763 Rocket 3.3 21:56:58 10° NNW 22:02:06 83° ENE 22:02:58 61° SE
Cosmos 1862 3.3 21:58:19 10° N 22:02:04 69° NE 22:02:04 69° NE
Nadezhda 2 Rocket 4.4 21:57:19 10° N 22:03:40 89° W 22:05:44 45° S
Cosmos-2242 4.2 22:02:37 22° SW 22:04:56 39° WNW 22:09:00 10° N
Cosmos 1408 Rocket 3.3 22:01:33 10° N 22:05:53 86° W 22:06:07 80° SSW
Cosmos 676 Rocket 3.9 22:07:09 49° SSW 22:08:37 88° ESE 22:13:50 10° NNE
CRYOSAT 2 4.3 22:10:15 61° SSW 22:11:07 81° W 22:16:04 10° N
CZ-4C R/B 4.4 22:06:04 10° WNW 22:11:09 29° N 22:17:08 10° NE
Cosmos 1805 Rocket 4.5 22:07:18 10° N 22:11:11 36° ENE 22:11:11 36° ENE
Spot 4 4.5 22:11:46 41° E 22:12:17 42° ENE 22:16:52 10° N
SL-16 R/B 2.6 22:13:00 10° NW 22:18:32 53° WSW 22:19:46 44° SSW
Sich 1 4.1 22:17:19 10° N 22:20:54 34° ENE 22:20:54 34° ENE
Cosmos 1743 Rocket 3.5 22:17:07 10° N 22:21:17 74° NE 22:21:17 74° NE
Cosmos 540 Rocket 3.4 22:16:22 10° NNW 22:21:31 69° ENE 22:22:04 63° ESE
Meteor 2-15 Rocket 4.3 22:22:08 52° S 22:23:45 86° E 22:29:51 10° NNE
NOSS 3-1 (C) 3.9 22:18:19 10° NW 22:25:37 87° SW 22:28:42 44° SE
SL-08 ROCKET BODY 4.3 22:20:23 10° N 22:26:31 89° W 22:27:52 57° S
Cosmos 1570 Rocket 4.3 22:23:24 10° NNW 22:28:38 55° ENE 22:29:21 51° E
Cosmos 2221 2.5 22:30:07 76° NNW 22:30:07 76° NNW 22:34:08 10° N
SL-08 R/B 4.4 22:24:03 10° N 22:30:15 85° W 22:31:43 55° S
Cosmos 1386 Rocket 4.3 22:27:29 10° N 22:33:35 74° ENE 22:34:38 60° SE
USA 215 4.5 22:32:58 24° SW 22:34:01 25° SW 22:39:14 10° WNW
Cosmos 44 Rocket 3.4 22:36:36 65° E 22:36:36 65° E 22:41:20 10° NE
Aureole 1 Rocket 3.8 22:38:07 55° E 22:38:07 55° E 22:42:29 10° NNE
Cosmos 1553 Rocket 3.8 22:39:11 59° S 22:40:27 88° E 22:46:35 10° N
Cosmos 1500 Rocket 3.7 22:36:34 10° NNW 22:40:50 69° WNW 22:40:50 69° WNW
Meteor 1-4 Rocket 4.4 22:44:18 26° WNW 22:44:19 26° WNW 22:47:20 10° N
Cosmos 1943 3.1 22:42:41 10° NNW 22:48:21 78° ENE 22:48:59 69° ESE
Cosmos 1741 Rocket 3.9 22:48:41 76° ESE 22:48:41 76° ESE 22:53:57 10° NNE
Lacrosse 5 rocket 2.0 22:45:15 10° WNW 22:49:30 54° NNE 22:49:47 52° NE
ALOS 2 3.2 22:49:56 48° NE 22:49:56 48° NE 22:53:49 10° N
Cosmos 1417 Rocket 4.4 22:49:46 60° S 22:51:05 90° NW 22:57:23 10° N
Cosmos 1850 Rocket 3.8 22:54:08 86° SE 22:54:11 86° ESE 22:59:28 10° NNE
ATLAS 5 CENTAUR R/B 4.2 22:50:32 10° NW 22:54:25 23° NNE 22:58:50 10° ENE
Cosmos 2208 Rocket 3.9 22:58:11 10° NNW 23:03:33 82° ENE 23:03:42 81° E
COSMOS 2455 3.0 23:01:18 36° WSW 23:03:51 69° NW 23:09:54 10° NE
SeaSat 1 2.3 22:59:25 10° NNE 23:04:24 86° WNW 23:04:24 86° WNW
Cosmos 1606 4.0 23:09:02 39° NNW 23:09:02 39° NNW 23:11:36 10° N
Terra 3.8 23:07:51 18° WSW 23:08:38 18° W 23:11:57 10° NW
Cosmos 2315 Rocket 4.1 23:10:31 58° ESE 23:11:07 60° E 23:17:23 10° NNE
Iridium 4 Rocket 4.0 23:11:57 48° ENE 23:11:57 48° ENE 23:16:40 10° NNE
Cosmos 1151 Rocket 4.2 23:21:43 36° NE 23:21:43 36° NE 23:24:39 10° NNE
Cosmos 2263 Rocket 2.0 23:24:25 81° E 23:24:25 81° E 23:29:55 10° NNE
Cosmos 2227 Rocket 4.0 23:22:01 10° W 23:26:52 28° NW 23:31:44 10° NNE
Cosmos 841 Rocket 4.4 23:27:11 10° NW 23:31:35 38° W 23:31:35 38° W
USA 229 DEB 3.9 23:25:29 10° NW 23:32:37 59° SW 23:33:33 55° SSW
Cosmos 1603 4.1 23:27:10 10° NW 23:32:30 51° WSW 23:32:30 51° WSW
USA 229 3.9 23:25:35 10° NW 23:32:43 60° SW 23:33:40 56° SSW
Meteor 2-17 Rocket 4.4 23:27:00 10° NNW 23:33:07 71° W 23:33:42 66° SW
Cosmos 2297 Rocket 4.4 23:30:12 10° W 23:34:37 23° NW 23:39:03 10° NNE
USA 281 3.5 23:33:03 45° ESE 23:34:59 63° NE 23:41:29 10° NNW
Cosmos 1844 Rocket 4.0 23:39:31 26° E 23:39:31 26° E 23:43:15 10° NE
Cosmos 2074 Rocket 4.2 23:36:14 10° N 23:42:27 61° ENE 23:43:22 55° ESE
Cosmos 1437 Rocket 4.2 23:43:52 34° NNW 23:43:52 34° NNW 23:46:18 10° N
Cosmos 1709 Rocket 4.1 23:40:02 10° NNW 23:46:08 58° W 23:46:44 55° WSW
Meteor 1-5 Rocket 4.4 23:41:10 10° N 23:46:55 61° ENE 23:47:20 59° E
NOSS 3-1 (A) 4.2 23:43:13 10° NW 23:50:27 54° WSW 23:51:29 51° SSW
